User: anonymous   Login
Location: Holyhead Bay
(53.3667°N, 4.6667°W)
Time: 08:30:13
(UTC+00:00)
Language:

deb Delta 89 - Orbit

View from above orbital plane
View from above orbital plane
View from above satellite
View from above satellite

Ground track
Ground track

The orbit data is extracted from the following two-line orbital elements,

1 07892U 72058BJ  21171.47782664  .00000117  00000-0  30485-4 0  9997
2 07892  98.6965   0.6192 0111890  16.9660 343.5234 14.64944151417709
Epoch (UTC): 20 June 2021 11:28:04
Eccentricity: 0.0111890
inclination: 98.6965°
perigee height: 598 km
apogee height: 756 km
right ascension of ascending node: 0.6192°
argument of perigee: 16.9660°
revolutions per day: 14.64944151
mean anomaly at epoch: 343.5234°
orbit number at epoch: 41770

The dashed part of the orbit path shows where the satellite is in the earth's shadow,  

DLR